This is the latest recevied weather packets stored in our database for station/object MARKET. If no packets are shown the sender has not sent any weather packets the latest 10 day(s).
| Time | Temp. | Humidity | Pressure | Rain* | Wind** | Luminosity | Snow |
|---|---|---|---|---|---|---|---|
| 1777246003 | 4.44° C | 65% | 1016.9 hPa | - | - | - | - |
| 1777244803 | 4.44° C | 66% | 1016.8 hPa | - | - | - | - |
| 1777243602 | 4.44° C | 67% | 1016.9 hPa | - | - | - | - |
| 1777242403 | 4.44° C | 69% | 1016.8 hPa | - | - | - | - |
| 1777241203 | 4.44° C | 67% | 1016.8 hPa | - | - | - | - |
| 1777240002 | 4.44° C | 70% | 1016.7 hPa | - | - | - | - |
| 1777238802 | 4.44° C | 66% | 1016.6 hPa | - | - | - | - |
| 1777237602 | 4.44° C | 66% | 1016.6 hPa | - | - | - | - |
| 1777236402 | 4.44° C | 65% | 1016.5 hPa | - | - | - | - |
| 1777235202 | 4.44° C | 69% | 1016.5 hPa | - | - | - | - |
| 1777234001 | 4.44° C | 66% | 1016.5 hPa | - | - | - | - |
| 1777232801 | 4.44° C | 67% | 1016.4 hPa | - | - | - | - |
| 1777231602 | 4.44° C | 71% | 1016.3 hPa | - | - | - | - |
| 1777230400 | 4.44° C | 66% | 1016.1 hPa | - | - | - | - |
| 1777229201 | 4.44° C | 70% | 1016.1 hPa | - | - | - | - |
| 1777226801 | 4.44° C | 69% | 1015.9 hPa | - | - | - | - |
| 1777225601 | 4.44° C | 71% | 1015.8 hPa | - | - | - | - |
| 1777224400 | 5° C | 66% | 1015.7 hPa | - | - | - | - |
| 1777223200 | 5° C | 65% | 1015.5 hPa | - | - | - | - |
| 1777222001 | 4.44° C | 69% | 1015.5 hPa | - | - | - | - |
| 1777220800 | 5° C | 67% | 1015.4 hPa | - | - | - | - |
| 1777219600 | 4.44° C | 69% | 1015.4 hPa | - | - | - | - |
| 1777218402 | 4.44° C | 69% | 1015.4 hPa | - | - | - | - |
| 1777217200 | 4.44° C | 73% | 1015.4 hPa | - | - | - | - |
| 1777216000 | 4.44° C | 73% | 1015.4 hPa | - | - | - | - |
* Rain since midnight (hover to see other rain measurements)
** Current wind speed in m/s (hover to see current wind gust speed)